User: anonymous   Login
Location: Oshawa
(43.9000°N, 78.8670°W)
Time: 00:50:26
(UTC-05:00)
Language:

CARTOSAT-1 - Orbit

View from above orbital plane
View from above orbital plane
View from above satellite
View from above satellite

Ground track
Ground track

The orbit data is extracted from the following two-line orbital elements,

1 28649U 05017A   17017.73839543 -.00000321  00000-0 -32701-4 0  9995
2 28649  97.8777  94.3883 0002612 138.1650 221.9528 14.83445631633679
Epoch (UTC): 17 January 2017 17:43:17
Eccentricity: 0.0002612
inclination: 97.8777°
perigee height: 616 km
apogee height: 620 km
right ascension of ascending node: 94.3883°
argument of perigee: 138.1650°
revolutions per day: 14.83445631
mean anomaly at epoch: 221.9528°
orbit number at epoch: 63367

The dashed part of the orbit path shows where the satellite is in the earth's shadow,  

DLR